Flag for Finland Weather past 2 weeks in Joensuu, Finland

Now
52 °F

Light rain. Overcast.


Feels Like: 52 °F
Forecast: 46 / 61 °F
Wind: 1 mph from Northeast

Location: Joensuu Airport

Current Time: Jul 5, 2015 at 4:06:12 AM

Latest Report: Jul 5, 2015 at 3:20 AM


Visibility: 4 mi

Pressure: 29.98 "Hg

Humidity: 94%

Dew point: 50 °F

Location of JoensuuLocation

Historic Weather in Joensuu — Graph

°F

Joensuu temperature yesterday

Maximum temperature yesterday: 73 °F (at 12:20 AM)
Minimum temperature yesterday: 55 °F (at 9:50 PM)
Average temperature yesterday: 66 °F

Past Weeks' High & Low Weather Summary

 TemperatureHumidityPressure
High82 °F (Jul 3, 3:20 PM)100% (Jun 21, 3:20 AM)30.30 "Hg (Jun 21, 3:20 AM)
Low43 °F (Jul 2, 4:20 AM)26% (Jun 29, 5:50 PM)29.68 "Hg (Jun 23, 12:50 PM)
Average62 °F73%29.89 "Hg
* Reported Jun 20 2:20 AM — Jul 5 2:50 AM, Joensuu, Weather by CustomWeather, © 2015

Note: Actual official high and low records may vary slightly from our data, if they occured in-between our weather recording intervals... More about our weather records

Advertising

Joensuu weather history for previous 24 hours

 ConditionsComfort  
Time TempWeatherWind HumidityBarometerVisibility
2:50 AM
Sun, Jul 5
54 °FOvercast.2 mph82%29.98 "HgN/A
2:20 AM54 °FMostly cloudy.2 mph82%29.98 "HgN/A
1:50 AM54 °FMostly cloudy.2 mph82%29.98 "HgN/A
1:20 AM54 °FMostly cloudy.3 mph82%29.98 "HgN/A
12:50 AM54 °FOvercast.5 mph82%29.95 "HgN/A
11:50 PM
Sat, Jul 4
55 °FOvercast.8 mph77%29.95 "HgN/A
11:20 PM55 °FOvercast.7 mph82%29.95 "HgN/A
10:50 PM55 °FOvercast.12 mph82%29.95 "HgN/A
10:20 PM55 °FOvercast.7 mph88%29.95 "HgN/A
9:50 PM55 °FPartly sunny.8 mph88%29.92 "HgN/A
9:20 PM57 °FPartly sunny.10 mph82%29.92 "HgN/A
8:50 PM57 °FPartly sunny.9 mph88%29.92 "HgN/A
8:20 PM59 °FPassing clouds.9 mph82%29.92 "HgN/A
7:50 PM61 °FBroken clouds.10 mph83%29.92 "HgN/A
7:20 PM63 °FPassing clouds.13 mph77%29.92 "HgN/A
6:50 PM64 °FScattered clouds.13 mph73%29.89 "HgN/A
6:20 PM70 °FPassing clouds.16 mph57%29.89 "HgN/A
5:50 PM72 °FPassing clouds.16 mph57%29.89 "HgN/A
5:20 PM72 °FScattered clouds.17 mph57%29.89 "HgN/A
4:50 PM70 °FBroken clouds.13 mph60%29.89 "HgN/A
4:20 PM72 °FScattered clouds.14 mph61%29.89 "HgN/A
3:50 PM72 °FPassing clouds.12 mph61%29.89 "HgN/A
3:20 PM70 °FPartly sunny.14 mph60%29.89 "HgN/A
2:50 PM72 °FBroken clouds.16 mph61%29.89 "HgN/A
2:20 PM72 °FPartly sunny.16 mph61%29.89 "HgN/A
1:50 PM70 °FPartly sunny.17 mph64%29.89 "HgN/A
1:20 PM70 °FScattered clouds.18 mph64%29.89 "HgN/A
12:50 PM72 °FPartly sunny.20 mph61%29.86 "HgN/A
12:20 PM72 °FPartly sunny.14 mph61%29.86 "HgN/A
11:50 AM73 °FPartly sunny.13 mph61%29.86 "HgN/A
11:20 AM73 °FPassing clouds.14 mph61%29.86 "HgN/A
10:50 AM72 °FPassing clouds.14 mph65%29.86 "HgN/A
10:20 AM72 °FPassing clouds.12 mph65%29.86 "HgN/A
9:50 AM72 °FPassing clouds.12 mph65%29.86 "HgN/A
9:20 AM70 °FPassing clouds.10 mph69%29.86 "HgN/A
8:50 AM70 °FPassing clouds.13 mph64%29.86 "HgN/A
8:20 AM70 °FPassing clouds.10 mph64%29.86 "HgN/A
7:50 AM68 °FPassing clouds.12 mph69%29.86 "HgN/A
7:20 AM68 °FPassing clouds.9 mph69%29.86 "HgN/A
6:50 AM66 °FPassing clouds.7 mph73%29.86 "HgN/A
6:20 AM66 °FPassing clouds.6 mph73%29.86 "HgN/A
5:50 AM64 °FPassing clouds.5 mph83%29.86 "HgN/A
5:20 AM64 °FSunny.3 mph83%29.86 "Hg10 mi
4:50 AM63 °FSunny.2 mph88%29.89 "Hg10 mi
4:20 AM61 °FSunny.2 mph88%29.89 "Hg10 mi
Weather by CustomWeather, © 2015

See weather overviewHow to use our weather pages